Погода в Ждановке

Россия / Оренбургская область     52°24′05″N   54°24′06″E
темп.,
°C
ветер,
м/с
пор.,
м/с
влажн.,
%
обл.,
%
осадки,
мм/ч
давл.,
гПа
погр.,
м
9 марта, вт
вт923:00−3ююз91694100 0.8 1008861
02:00−2юз101794100 0.7 1007950
05:00−2юз81392100 1.3 1008693
08:00−5з4996100 0.9 1009331
11:00−5з2395100 1.7 1010288
14:00−4всв2292100 0.4 1010241
17:00−3всв3497100 0.9 1009254
20:00−3ююв2598100 1.1 1007241
10 марта, ср
ср1023:00−2ю61196100 2.1 1005550
02:00−2ю71396100 1.9 1003794
05:00−8зсз101593100 2.8 1002631
08:00−10зсз91493100 0.5 1004542
11:00−13з81295100 0.7 1007390
14:00−13з71194100 0.1 1009467
17:00−11з71092100 0.2 1011700
20:00−13зсз61294100 0.3 1013480
11 марта, чт
чт1123:00−16сз5119299 0.3 1014371
02:00−21сз489644 0.0 1016133
05:00−24зсз479723 0.0 1018121
08:00−27зсз479942 0.0 1020122
11:00−24сз589551 0.0 1022303
14:00−21сз579363 0.0 1023340
17:00−21зсз479462 0.0 1025325
20:00−24зсз349912 0.0 102645
12 марта, пт
пт1223:00−25зсз349915 0.0 102840
02:00−25зсз2310078 0.0 102923
05:00−25зсз2310084 0.0 103020
08:00−25зсз2310095 0.0 103222
11:00−20зсз3510097 0.0 1033166
14:00−16сз359275 0.0 1033219
17:00−15зсз359449 0.0 1033196
20:00−18зсз33960 0.0 103421
13 марта, сб
сб1323:00−19зсз23996 0.0 103620
02:00−20зсз2210053 0.0 103720
05:00−21зсз229933 0.0 103720
08:00−21сз22940 0.0 103820
11:00−16сз23870 0.0 1038108
14:00−13сз35860 0.0 1038236
17:00−12сз35900 0.0 1036219
20:00−16ссз23880 0.0 103521